Location: Heathcote
(40.9845°N, 73.7746°W)
Time: 04:04:53
(UTC+00:00)

Atlas Centaur 2 - Pass Details

Date: 29 October 2020
Orbit: 459 x 1309 km, 30.4° (Epoch: 23 November)

Event Time Altitude Azimuth Distance (km) Brightness Sun altitude
Rises 22:19:01 0° 240° (WSW) 3,981 7.5 -5.4°
Reaches altitude 10° 22:21:57 10° 232° (SW) 3,119 6.4 -5.9°
Maximum altitude 22:29:04 36° 169° (S) 1,909 4.1 -7.2°
Drops below altitude 10° 22:36:38 10° 107° (ESE) 3,317 4.7 -8.6°
Enters shadow 22:37:43 - 104° (ESE) 3,626 4.9 -8.8°
